Wind_Speed
39 42 46 48 46 46 46 45 44 43 42 40 40 38 38 38 38 36 35 35 34 31 31 31 32 34 39 42 45 46 47 48 47 47 48 49 48 49 47 47 48 47 52 50 52 53 51 52 50
41 41 43 46 49 51 50 50 49 49 49 47 45 43 42 41 39 39 39 39 38 37 35 34 35 36 37 38 39 42 43 44 47 50 52 49 50 51 53 53 54 50 49 50 52 51 54 55 53
41 42 42 45 47 48 49 52 53 54 53 52 50 47 46 44 43 42 41 40 40 39 39 41 41 41 40 39 40 40 40 40 40 40 40 45 48 50 51 52 52 54 53 53 55 55 55 58 60
45 45 46 48 48 48 48 48 48 49 49 49 49 50 53 51 49 47 46 45 45 45 44 43 45 47 46 45 42 42 41 42 43 42 42 41 41 41 45 47 50 53 53 53 56 56 53 54 53
48 49 51 53 53 52 51 51 50 49 49 49 48 46 45 52 54 52 51 50 50 49 48 47 47 48 49 50 49 48 46 45 45 45 45 43 42 42 40 38 37 39 41 42 44 46 46 45 44
51 53 54 57 57 56 56 55 54 51 49 49 48 46 45 43 45 47 48 48 48 49 47 47 47 48 48 51 51 52 50 49 46 46 47 46 44 43 40 37 34 32 33 34 35 36 36 35 35
51 54 56 59 58 57 57 57 56 54 52 50 48 46 46 46 44 44 44 44 44 43 44 43 43 43 43 45 47 50 50 49 47 44 44 45 43 40 36 34 33 32 31 31 32 31 31 31 31
42 44 47 50 52 55 55 56 57 56 53 51 49 48 46 45 45 45 44 42 40 39 38 37 37 37 39 40 41 42 43 43 41 38 37 37 34 34 33 33 32 31 31 32 33 31 28 26 24
33 36 38 41 42 44 48 51 54 56 55 54 51 49 48 45 45 45 43 41 40 39 40 38 37 40 42 41 39 40 41 39 37 35 34 32 32 31 31 31 31 30 32 31 30 26 20 17 12
26 27 28 30 32 36 40 45 49 52 55 55 54 51 49 48 47 45 44 42 41 42 41 41 40 40 40 39 37 35 35 35 33 31 30 30 30 30 30 31 31 30 29 25 18 15 14 12 10
20 22 23 24 26 31 34 40 44 47 50 52 54 53 50 49 47 45 44 43 43 43 41 39 39 39 37 33 31 29 28 28 28 28 27 28 29 29 28 27 25 22 20 18 17 15 13 10 7
16 18 20 20 23 25 28 33 37 43 44 47 49 48 48 48 47 46 44 42 40 40 37 35 34 33 29 26 25 25 25 26 26 27 28 28 27 24 23 24 24 23 20 19 17 14 11 9 7
18 16 16 17 20 23 25 27 31 36 42 43 45 47 46 46 46 45 44 42 39 37 34 32 29 26 24 23 23 24 24 25 25 25 24 24 27 28 27 26 25 23 21 19 15 13 13 9 7
17 19 18 17 18 21 25 27 30 31 34 37 41 43 43 42 41 42 41 40 38 34 31 27 26 23 22 21 22 22 22 24 28 30 32 32 32 31 29 28 26 23 20 16 17 14 11 8 8
16 18 19 18 19 20 24 28 27 26 34 36 37 38 39 38 37 35 36 35 33 30 28 25 23 21 21 23 27 30 34 36 37 36 35 33 31 29 28 25 23 21 19 18 16 14 11 9 9
13 15 17 17 15 17 21 23 23 33 33 33 31 34 36 35 30 32 31 31 29 28 26 24 23 26 32 35 39 41 40 38 37 35 34 30 27 26 25 24 21 20 19 17 15 15 13 11 9
9 10 11 8 7 12 17 22 25 23 26 31 31 31 32 30 32 30 29 29 29 28 27 27 35 39 43 42 40 39 38 37 35 33 31 27 25 24 23 23 22 20 18 16 16 16 14 11 11
7 5 3 1 3 5 10 13 17 22 27 29 30 31 30 31 30 30 30 29 29 29 32 39 44 46 44 41 39 37 37 34 32 30 28 26 25 24 23 23 23 21 19 18 17 16 14 12 13
7 3 2 3 4 7 10 14 18 23 26 28 27 27 28 28 30 33 31 29 32 35 42 47 46 44 41 38 36 35 33 32 30 28 25 25 24 24 24 24 23 22 20 20 19 18 15 13 14
11 9 5 3 5 6 7 10 12 15 18 20 22 24 24 27 31 31 30 32 37 42 47 49 47 43 39 36 36 34 32 31 29 27 23 23 23 23 24 23 22 22 22 22 21 22 20 19 19
14 14 13 10 9 11 10 10 12 16 18 20 22 23 25 28 28 29 30 35 43 49 51 49 46 41 38 37 37 35 33 32 29 24 22 20 20 21 22 24 24 25 25 25 24 25 25 24 23
16 18 17 18 17 16 16 17 18 20 22 25 26 28 30 31 30 30 34 43 49 53 52 49 45 40 37 36 36 34 31 30 27 26 26 23 22 22 22 23 25 26 27 27 26 26 25 24 26
18 18 21 22 22 21 20 20 22 24 25 27 28 29 29 29 30 32 40 48 52 55 54 49 45 42 40 40 37 34 32 29 29 28 27 27 26 25 25 26 27 29 30 29 29 28 25 25 29
24 22 20 23 26 25 24 24 26 27 27 28 28 29 30 31 32 37 46 51 57 58 54 50 48 45 42 41 39 37 32 31 31 30 30 30 29 28 28 30 30 31 34 33 31 31 29 30 31
24 28 27 25 25 28 28 27 30 29 29 30 31 30 31 34 35 44 52 55 59 58 55 51 49 47 44 43 41 39 35 34 34 33 34 35 34 33 31 32 33 34 34 35 34 34 34 33 34
31 28 32 32 30 28 28 29 31 31 32 32 33 33 32 35 39 47 54 58 61 60 57 54 50 49 47 45 43 40 38 38 37 38 38 38 37 38 37 36 37 37 37 38 36 35 35 33 34
35 35 32 33 38 35 30 29 33 33 34 34 35 35 35 37 41 49 55 60 62 62 58 55 52 51 48 48 45 41 41 41 42 43 42 41 41 42 42 41 41 41 41 41 39 37 38 38 38
37 38 38 38 37 40 38 35 34 35 33 36 36 37 38 39 45 52 57 60 64 62 61 59 55 53 52 50 48 47 46 46 45 46 46 48 49 50 49 48 47 45 45 45 44 42 42 44 45
42 40 40 42 42 42 44 42 42 39 38 37 36 39 41 41 48 54 58 63 65 65 64 60 57 57 57 55 54 51 50 49 49 50 52 52 52 52 53 53 53 51 49 48 47 48 49 51 51
48 47 46 44 45 48 49 50 48 47 45 39 38 39 40 46 50 57 60 64 67 66 65 63 61 60 60 58 57 55 53 51 51 52 53 53 54 54 53 53 54 54 53 53 52 51 51 53 55
Wind_Direction
248 243 243 240 238 238 237 239 240 241 242 243 243 242 239 238 237 238 242 246 245 242 241 241 240 235 237 242 246 249 251 252 252 256 259 259 263 264 264 261 259 260 262 266 268 261 269 269 275
252 247 245 244 241 241 240 242 245 246 246 247 247 246 242 240 240 239 239 242 244 245 244 244 243 243 243 241 241 242 247 252 254 255 257 259 261 262 262 264 265 265 263 266 269 269 271 272 276
252 251 250 249 247 245 243 245 246 248 248 249 247 246 246 244 242 240 241 244 243 245 247 249 249 249 249 247 247 246 246 248 250 251 255 256 258 258 259 261 261 263 265 267 269 272 274 277 279
256 253 251 251 250 249 247 246 246 247 247 248 249 248 245 246 246 245 246 248 247 249 252 253 250 248 250 251 251 251 253 253 252 254 255 256 257 258 260 262 264 266 266 270 273 276 277 278 281
260 257 256 253 251 250 249 248 247 248 249 248 248 249 250 245 245 248 249 248 249 251 252 252 253 249 249 252 252 255 255 257 256 256 256 258 260 262 265 268 270 271 271 272 273 275 277 280 281
264 261 258 255 253 251 248 248 248 248 247 248 246 247 249 248 246 247 249 250 251 250 251 254 252 251 251 251 254 254 256 257 257 256 255 257 259 261 265 267 270 269 272 273 274 276 278 280 280
267 263 260 256 253 251 249 247 246 247 246 246 245 246 247 247 247 247 247 250 250 250 249 249 247 248 250 251 253 254 254 257 257 258 255 255 257 259 260 261 265 267 270 269 271 273 277 280 285
267 261 256 254 250 248 246 245 244 244 243 244 245 245 246 247 247 248 250 249 249 247 246 246 248 248 250 253 253 252 252 253 253 252 251 250 252 253 252 257 258 262 264 266 268 275 279 281 282
264 260 256 253 251 247 244 242 240 240 241 242 243 245 246 247 247 248 249 251 250 249 249 250 253 254 256 258 258 253 250 249 248 248 246 246 246 247 247 251 255 260 264 270 273 274 266 263 244
268 264 257 254 249 244 242 239 237 237 238 240 242 242 244 245 246 248 249 250 252 253 254 255 258 260 260 260 257 251 246 244 242 242 242 239 240 242 245 249 256 260 260 260 247 228 212 215 208
269 263 259 254 248 243 241 237 235 234 235 238 240 240 241 243 244 246 249 251 251 252 254 257 259 258 258 254 248 242 237 234 233 233 232 235 237 242 245 242 242 231 215 208 188 187 197 200 216
279 261 260 257 251 245 240 238 235 234 234 234 236 237 238 239 241 243 246 247 250 252 253 256 255 252 247 239 235 231 225 223 224 226 229 232 232 221 203 193 188 181 182 180 189 189 189 197 212
293 276 268 263 252 245 241 237 232 231 231 233 234 234 234 236 239 241 243 246 248 250 251 252 246 238 234 231 226 222 218 218 217 215 207 188 173 171 171 169 172 175 176 182 181 182 183 195 190
302 288 282 275 260 246 238 236 232 230 231 229 231 231 231 232 235 237 240 242 244 244 244 233 225 227 226 223 217 208 197 187 176 167 159 155 158 163 166 172 174 177 180 180 183 183 186 191 185
309 295 290 285 262 243 235 233 235 231 228 226 225 227 227 226 229 232 234 236 236 231 220 214 218 218 210 192 179 168 160 153 151 153 156 157 161 165 170 178 178 181 184 184 183 193 197 196 205
314 299 287 287 261 242 234 234 226 228 228 222 221 220 218 219 220 223 225 225 217 209 205 209 207 188 174 171 158 152 152 153 155 158 161 162 166 170 177 180 183 186 191 194 199 205 209 212 215
326 312 287 273 263 239 223 222 225 235 218 207 211 209 209 209 211 212 207 202 201 201 204 193 178 173 164 160 158 157 158 159 162 164 166 171 175 178 182 183 190 192 197 205 214 218 219 215 224
318 332 320 285 167 179 179 183 187 189 196 197 199 198 200 203 203 191 190 196 204 203 189 176 172 166 163 162 162 162 163 165 166 169 175 181 188 193 197 201 203 204 209 218 226 229 225 226 235
282 286 30 114 123 149 157 172 180 184 188 191 193 197 196 196 191 188 191 205 205 192 179 176 169 168 167 169 170 170 173 173 173 177 183 189 194 202 208 213 215 215 221 226 229 233 234 236 248
250 259 249 215 154 140 151 164 172 170 174 179 185 189 191 190 194 197 200 206 197 185 180 175 173 172 174 177 178 181 182 182 183 185 191 196 201 206 212 214 215 218 224 230 233 237 242 245 254
257 248 243 238 219 196 184 179 181 175 179 184 189 194 201 209 211 212 207 205 191 183 179 177 176 178 182 183 186 189 190 191 193 198 199 203 208 214 219 223 225 226 224 229 235 238 244 245 246
268 257 248 241 236 226 219 210 204 203 204 208 208 210 215 216 213 213 209 202 190 185 181 181 183 186 188 192 194 194 197 202 204 206 208 212 218 223 228 228 228 226 226 231 235 239 242 248 250
266 265 259 250 244 238 230 228 223 222 223 224 223 221 223 220 217 212 208 199 193 187 185 187 188 192 195 197 196 198 204 208 213 216 219 222 224 229 231 232 233 232 233 239 243 244 246 253 252
259 261 261 259 252 247 239 238 234 230 232 233 233 230 231 226 217 212 206 198 194 191 190 192 195 198 199 201 199 204 209 213 219 223 226 229 233 236 238 238 239 239 239 245 249 250 254 258 259
267 256 257 257 257 255 250 245 245 238 234 236 237 236 233 227 219 211 205 200 198 196 195 198 200 201 204 206 205 210 214 219 223 227 231 235 239 242 244 245 245 245 245 249 252 255 257 261 262
262 266 257 257 257 256 252 251 248 244 242 237 236 234 233 228 221 214 208 204 202 200 200 201 204 207 209 210 212 217 222 227 229 231 233 237 242 246 247 248 249 250 251 251 254 256 259 262 266
256 257 262 259 258 257 255 249 250 246 243 239 235 233 231 227 223 216 212 209 207 205 205 206 209 212 212 214 217 222 226 231 234 235 238 242 245 247 250 251 252 252 252 252 254 257 260 263 267
259 255 253 257 259 258 254 250 247 247 244 242 236 234 230 227 222 218 214 212 212 209 209 210 212 213 215 220 224 228 231 234 235 237 241 245 247 248 249 250 253 253 252 252 256 259 261 265 268
263 259 254 250 253 259 258 254 249 249 244 243 240 238 232 227 223 221 219 217 216 214 213 215 217 218 220 224 226 231 236 239 239 241 246 249 249 249 249 250 250 252 253 253 256 259 262 265 269
269 264 259 253 250 251 256 260 256 250 249 244 241 239 238 233 226 223 223 220 219 218 219 219 223 223 225 229 229 232 237 240 245 247 249 250 250 251 250 250 251 250 252 253 256 260 264 266 267
Height
10892 10893 10894 10895 10898 10899 10901 10905 10908 10910 10912 10914 10916 10918 10921 10923 10926 10928 10929 10930 10932 10934 10937 10938 10940 10941 10942 10943 10944 10945 10947 10950 10952 10955 10957 10959 10959 10960 10962 10962 10963 10964 10964 10965 10964 10964 10961 10962 10960
10883 10885 10886 10888 10890 10892 10895 10897 10900 10902 10905 10907 10909 10912 10914 10917 10920 10922 10923 10925 10926 10929 10931 10933 10934 10935 10936 10938 10940 10942 10943 10944 10946 10948 10951 10952 10953 10954 10955 10956 10957 10958 10959 10958 10958 10958 10956 10955 10954
10875 10876 10878 10878 10880 10883 10889 10889 10893 10894 10896 10898 10902 10904 10907 10910 10912 10914 10916 10918 10920 10922 10925 10927 10928 10929 10930 10932 10934 10936 10938 10939 10940 10942 10943 10945 10946 10948 10948 10949 10949 10950 10950 10950 10951 10950 10949 10949 10948
10866 10868 10869 10869 10871 10875 10878 10881 10884 10886 10888 10890 10893 10897 10899 10902 10904 10907 10909 10911 10913 10915 10917 10919 10921 10923 10924 10925 10926 10928 10930 10932 10934 10936 10938 10939 10939 10940 10942 10944 10944 10944 10944 10944 10944 10943 10942 10942 10942
10856 10857 10858 10859 10861 10865 10869 10872 10875 10877 10880 10882 10885 10888 10891 10894 10896 10898 10901 10903 10905 10907 10909 10911 10912 10915 10917 10918 10919 10921 10923 10925 10927 10929 10930 10931 10932 10934 10935 10936 10936 10936 10937 10937 10937 10937 10936 10936 10936
10845 10845 10846 10846 10849 10853 10857 10860 10864 10867 10870 10873 10876 10880 10883 10885 10888 10890 10892 10895 10897 10900 10902 10903 10904 10906 10909 10910 10911 10913 10915 10918 10920 10921 10923 10924 10926 10927 10929 10929 10930 10931 10931 10931 10931 10931 10931 10932 10931
10832 10832 10831 10831 10835 10839 10844 10849 10853 10856 10860 10864 10868 10871 10874 10877 10880 10882 10885 10888 10890 10892 10894 10895 10896 10898 10900 10903 10904 10906 10908 10909 10911 10914 10915 10918 10919 10921 10922 10923 10924 10925 10926 10926 10926 10926 10927 10927 10926
10819 10817 10817 10817 10821 10825 10831 10836 10841 10846 10850 10854 10859 10863 10866 10869 10872 10875 10877 10880 10883 10884 10886 10887 10889 10891 10893 10895 10898 10899 10900 10901 10903 10906 10909 10911 10913 10914 10916 10918 10919 10919 10920 10920 10921 10922 10922 10921 10922
10808 10807 10807 10807 10811 10815 10819 10824 10829 10833 10839 10844 10850 10854 10858 10861 10864 10867 10870 10873 10875 10878 10879 10881 10883 10884 10885 10887 10889 10891 10893 10895 10897 10899 10902 10905 10906 10908 10909 10911 10912 10913 10914 10916 10916 10917 10917 10918 10919
10800 10799 10799 10800 10803 10805 10809 10812 10817 10822 10828 10834 10840 10845 10849 10853 10856 10859 10862 10866 10868 10870 10872 10875 10876 10877 10878 10879 10880 10882 10885 10888 10891 10893 10895 10897 10899 10902 10904 10905 10907 10907 10910 10911 10913 10914 10915 10916 10918
10794 10793 10794 10794 10796 10797 10800 10803 10808 10813 10818 10824 10829 10836 10841 10844 10848 10852 10855 10858 10861 10863 10865 10868 10869 10869 10870 10871 10873 10875 10878 10881 10885 10887 10889 10892 10894 10896 10898 10900 10902 10904 10907 10909 10911 10913 10915 10916 10918
10789 10788 10789 10789 10790 10792 10794 10796 10801 10805 10811 10815 10820 10826 10831 10836 10840 10844 10847 10850 10853 10856 10859 10861 10862 10862 10864 10865 10868 10870 10873 10875 10878 10881 10884 10887 10890 10892 10894 10897 10900 10903 10906 10909 10911 10914 10916 10917 10917
10785 10784 10784 10784 10785 10786 10788 10791 10794 10797 10801 10807 10812 10816 10822 10826 10831 10836 10839 10843 10847 10850 10853 10854 10855 10857 10859 10860 10863 10865 10868 10870 10873 10876 10879 10882 10886 10890 10894 10897 10900 10903 10906 10909 10912 10914 10916 10916 10917
10782 10781 10780 10779 10779 10780 10783 10785 10787 10791 10795 10799 10803 10808 10813 10819 10824 10827 10832 10837 10840 10844 10847 10849 10851 10853 10854 10856 10859 10861 10863 10866 10869 10874 10878 10882 10887 10891 10895 10898 10902 10905 10907 10910 10912 10914 10915 10916 10917
10780 10778 10776 10776 10774 10774 10776 10778 10783 10787 10787 10790 10795 10801 10806 10812 10816 10822 10826 10830 10834 10838 10841 10844 10847 10850 10851 10853 10856 10859 10862 10866 10871 10875 10880 10884 10887 10891 10895 10899 10902 10905 10907 10910 10912 10913 10914 10915 10915
10780 10776 10774 10772 10771 10770 10771 10774 10777 10777 10781 10787 10791 10794 10800 10805 10812 10815 10820 10825 10830 10834 10837 10840 10844 10847 10850 10853 10855 10859 10863 10867 10872 10876 10880 10884 10887 10891 10895 10898 10901 10904 10907 10908 10910 10912 10913 10913 10914
10780 10776 10773 10771 10769 10767 10767 10768 10770 10774 10778 10782 10786 10791 10795 10801 10804 10810 10816 10821 10826 10830 10834 10838 10842 10845 10849 10853 10856 10860 10864 10868 10873 10877 10880 10884 10887 10891 10894 10898 10900 10903 10905 10906 10908 10909 10910 10911 10911
10780 10778 10774 10772 10769 10768 10767 10768 10770 10772 10775 10779 10783 10787 10792 10797 10802 10807 10813 10818 10822 10827 10830 10835 10840 10844 10847 10852 10856 10860 10865 10869 10872 10876 10880 10883 10886 10889 10892 10896 10898 10900 10902 10903 10905 10906 10908 10908 10909
10780 10778 10776 10774 10772 10771 10771 10771 10771 10772 10775 10778 10783 10787 10792 10797 10801 10804 10809 10814 10818 10823 10827 10833 10837 10842 10846 10851 10856 10860 10864 10868 10871 10875 10878 10881 10884 10887 10890 10892 10895 10897 10898 10900 10901 10903 10904 10905 10905
10779 10778 10777 10776 10775 10774 10774 10775 10776 10778 10780 10783 10786 10790 10795 10799 10800 10803 10806 10810 10815 10819 10825 10830 10834 10840 10845 10850 10854 10858 10862 10866 10869 10873 10876 10879 10882 10884 10887 10889 10891 10893 10894 10896 10897 10899 10900 10900 10900
10777 10777 10776 10776 10776 10776 10777 10778 10779 10781 10783 10785 10788 10791 10794 10796 10800 10803 10805 10809 10813 10817 10823 10829 10834 10839 10844 10848 10852 10856 10860 10864 10867 10870 10873 10876 10878 10881 10883 10885 10886 10888 10890 10892 10893 10894 10895 10896 10895
10775 10774 10773 10773 10774 10775 10777 10778 10779 10781 10782 10783 10785 10787 10789 10792 10796 10800 10804 10807 10810 10816 10822 10827 10831 10836 10842 10846 10850 10854 10858 10860 10863 10866 10869 10872 10874 10877 10878 10880 10882 10883 10885 10887 10888 10889 10889 10889 10889
10772 10771 10771 10770 10770 10771 10774 10775 10776 10778 10779 10781 10783 10785 10787 10790 10793 10797 10800 10804 10810 10814 10816 10822 10827 10831 10836 10841 10846 10850 10853 10857 10859 10862 10866 10868 10870 10872 10874 10876 10877 10879 10880 10881 10882 10882 10882 10883 10882
10769 10767 10767 10765 10765 10767 10769 10770 10770 10772 10775 10777 10779 10782 10784 10786 10789 10793 10797 10802 10806 10809 10813 10817 10821 10827 10832 10836 10841 10845 10849 10852 10855 10858 10860 10863 10865 10867 10869 10870 10872 10873 10874 10874 10875 10875 10875 10875 10874
10764 10763 10762 10761 10761 10762 10764 10765 10764 10767 10768 10770 10773 10777 10779 10782 10784 10788 10792 10797 10802 10805 10809 10814 10819 10823 10827 10832 10836 10839 10843 10846 10849 10852 10854 10856 10858 10860 10862 10864 10865 10866 10867 10867 10867 10867 10867 10866 10865
10760 10759 10757 10756 10755 10756 10758 10759 10758 10760 10762 10764 10767 10770 10773 10776 10779 10783 10787 10791 10796 10799 10804 10808 10813 10818 10822 10826 10830 10834 10837 10839 10842 10845 10847 10849 10851 10853 10855 10856 10857 10858 10859 10859 10859 10859 10858 10857 10856
10752 10752 10752 10750 10748 10749 10751 10752 10750 10751 10754 10758 10760 10763 10766 10769 10773 10778 10782 10786 10790 10794 10798 10802 10807 10812 10816 10819 10823 10826 10830 10832 10834 10837 10840 10842 10843 10844 10845 10848 10848 10849 10850 10850 10850 10850 10849 10848 10848
10742 10743 10744 10744 10742 10741 10742 10742 10743 10743 10748 10749 10754 10756 10759 10763 10766 10769 10774 10778 10783 10787 10791 10794 10799 10803 10807 10812 10815 10817 10820 10822 10825 10829 10830 10831 10833 10834 10835 10837 10838 10839 10840 10840 10840 10840 10840 10839 10838
10732 10732 10733 10735 10734 10732 10730 10734 10734 10736 10737 10742 10747 10749 10751 10756 10756 10761 10765 10770 10774 10778 10782 10786 10790 10793 10797 10799 10802 10807 10810 10813 10816 10819 10819 10820 10821 10822 10824 10825 10827 10828 10829 10830 10829 10829 10828 10827 10826
10721 10722 10722 10723 10725 10723 10721 10720 10723 10726 10728 10735 10739 10740 10746 10744 10747 10751 10755 10759 10764 10769 10773 10776 10780 10783 10786 10789 10793 10795 10798 10800 10803 10805 10805 10807 10809 10811 10812 10813 10815 10816 10817 10817 10818 10817 10816 10815 10814